• In United Kingdom
  • List of Countries
  • For 7 days
  • Water Temperature
  • Satellite Maps
  • Weather Map
  • Weather Widgets
  • user-avatar
    Login

    Hourly Weather Bregenz

    Today, 25 February, Sunday

    Time Temperature Precipitation Wind Pressure Humidity
    00:00 -9°C° 0 mm 3 mps 640 mmHg 90%
    01:00 -10°C° 0 mm 3 mps 640 mmHg 92%
    02:00 -10°C° 0 mm 3 mps 640 mmHg 91%
    03:00 -12°C° 0 mm 3 mps 640 mmHg 91%
    04:00 -12°C° 0 mm 3 mps 640 mmHg 91%
    05:00 -13°C° 0 mm 3 mps 640 mmHg 90%
    06:00 -14°C° 0 mm 4 mps 640 mmHg 90%
    07:00 -14°C° 0 mm 3 mps 640 mmHg 93%
    08:00 -13°C° 0 mm 3 mps 640 mmHg 89%
    09:00 -14°C° 0 mm 4 mps 640 mmHg 85%
    10:00 -12°C° 0 mm 4 mps 640 mmHg 81%
    11:00 -12°C° 0 mm 4 mps 640 mmHg 77%
    12:00 -11°C° 0 mm 4 mps 640 mmHg 74%
    13:00 -12°C° 0 mm 5 mps 641 mmHg 70%
    14:00 -12°C° 0 mm 5 mps 640 mmHg 71%
    15:00 -12°C° 0 mm 5 mps 640 mmHg 71%
    16:00 -13°C° 0 mm 5 mps 640 mmHg 72%
    17:00 -14°C° 0 mm 4 mps 640 mmHg 76%
    18:00 -15°C° 0 mm 4 mps 640 mmHg 80%
    19:00 -16°C° 0 mm 3 mps 640 mmHg 83%
    20:00 -16°C° 0 mm 3 mps 640 mmHg 84%
    21:00 -17°C° 0 mm 3 mps 640 mmHg 84%
    22:00 -17°C° 0 mm 3 mps 640 mmHg 85%
    23:00 -18°C° 0 mm 3 mps 640 mmHg 85%

    Tomorrow, 26 February, Monday

    Time Temperature Precipitation Wind Pressure Humidity
    00:00 -18°C° 0 mm 3 mps 640 mmHg 85%
    01:00 -19°C° 0 mm 3 mps 640 mmHg 85%
    02:00 -19°C° 0 mm 3 mps 640 mmHg 85%
    03:00 -19°C° 0 mm 3 mps 640 mmHg 85%
    04:00 -21°C° 0 mm 3 mps 639 mmHg 85%
    05:00 -21°C° 0 mm 3 mps 639 mmHg 85%
    06:00 -21°C° 0 mm 3 mps 639 mmHg 85%
    07:00 -22°C° 0 mm 3 mps 639 mmHg 85%
    08:00 -21°C° 0 mm 3 mps 639 mmHg 81%
    09:00 -20°C° 0 mm 4 mps 639 mmHg 76%
    10:00 -19°C° 0 mm 4 mps 640 mmHg 72%
    11:00 -18°C° 0 mm 4 mps 639 mmHg 70%
    12:00 -18°C° 0 mm 5 mps 639 mmHg 67%
    13:00 -17°C° 0 mm 5 mps 639 mmHg 65%
    14:00 -18°C° 0 mm 5 mps 639 mmHg 67%
    15:00 -18°C° 0 mm 5 mps 639 mmHg 68%
    16:00 -18°C° 0 mm 5 mps 638 mmHg 70%
    17:00 -18°C° 0 mm 4 mps 638 mmHg 74%
    18:00 -19°C° 0 mm 4 mps 638 mmHg 78%
    19:00 -20°C° 0 mm 4 mps 639 mmHg 82%
    20:00 -19°C° 0 mm 3 mps 638 mmHg 83%
    21:00 -21°C° 0 mm 3 mps 638 mmHg 84%
    22:00 -21°C° 0 mm 3 mps 638 mmHg 85%
    23:00 -20°C° 0 mm 2 mps 638 mmHg 84%

    Day after tomorrow, 27 February, Tuesday

    Time Temperature Precipitation Wind Pressure Humidity
    00:00 -20°C° 0 mm 2 mps 638 mmHg 84%
    01:00 -21°C° 0 mm 2 mps 637 mmHg 84%
    02:00 -21°C° 0 mm 2 mps 637 mmHg 83%
    03:00 -21°C° 0 mm 2 mps 637 mmHg 83%
    04:00 -21°C° 0 mm 2 mps 636 mmHg 82%
    05:00 -21°C° 0 mm 2 mps 636 mmHg 82%
    06:00 -23°C° 0 mm 2 mps 636 mmHg 81%
    07:00 -23°C° 0 mm 2 mps 636 mmHg 81%
    08:00 -20°C° 0 mm 2 mps 636 mmHg 75%
    09:00 -19°C° 0 mm 2 mps 637 mmHg 70%
    10:00 -17°C° 0 mm 2 mps 637 mmHg 64%
    11:00 -16°C° 0 mm 2 mps 637 mmHg 62%
    12:00 -15°C° 0 mm 2 mps 637 mmHg 60%
    13:00 -15°C° 0 mm 3 mps 637 mmHg 59%
    14:00 -15°C° 0 mm 3 mps 637 mmHg 62%
    15:00 -15°C° 0 mm 3 mps 636 mmHg 65%
    16:00 -15°C° 0 mm 3 mps 636 mmHg 68%
    17:00 -16°C° 0 mm 3 mps 636 mmHg 74%
    18:00 -17°C° 0 mm 2 mps 636 mmHg 81%
    19:00 -18°C° 0 mm 2 mps 637 mmHg 87%
    20:00 -18°C° 0 mm 2 mps 637 mmHg 86%
    21:00 -19°C° 0 mm 2 mps 637 mmHg 86%
    22:00 -19°C° 0 mm 2 mps 637 mmHg 85%
    23:00 -19°C° 0 mm 2 mps 637 mmHg 83%

    28 February, Wednesday

    Time Temperature Precipitation Wind Pressure Humidity
    00:00 -19°C° 0 mm 2 mps 637 mmHg 81%
    01:00 -20°C° 0 mm 2 mps 637 mmHg 79%
    02:00 -20°C° 0 mm 2 mps 637 mmHg 79%
    03:00 -20°C° 0 mm 2 mps 637 mmHg 79%
    04:00 -20°C° 0 mm 2 mps 637 mmHg 79%
    05:00 -20°C° 0 mm 2 mps 637 mmHg 79%
    06:00 -20°C° 0 mm 2 mps 637 mmHg 78%
    07:00 -20°C° 0 mm 2 mps 638 mmHg 78%
    08:00 -18°C° 0 mm 2 mps 638 mmHg 72%
    09:00 -16°C° 0 mm 2 mps 639 mmHg 66%
    10:00 -13°C° 0 mm 2 mps 639 mmHg 59%
    11:00 -12°C° 0 mm 2 mps 639 mmHg 55%
    12:00 -9°C° 0 mm 2 mps 640 mmHg 52%
    13:00 -8°C° 0 mm 2 mps 640 mmHg 48%
    14:00 -9°C° 0 mm 3 mps 639 mmHg 50%
    15:00 -9°C° 0 mm 3 mps 639 mmHg 53%
    16:00 -9°C° 0 mm 3 mps 639 mmHg 55%
    17:00 -10°C° 0 mm 3 mps 639 mmHg 62%
    18:00 -13°C° 0 mm 3 mps 638 mmHg 69%
    19:00 -14°C° 0 mm 3 mps 638 mmHg 75%
    20:00 -14°C° 0 mm 3 mps 638 mmHg 75%
    21:00 -14°C° 0 mm 3 mps 639 mmHg 74%
    22:00 -14°C° 0 mm 3 mps 639 mmHg 73%
    23:00 -14°C° 0 mm 3 mps 639 mmHg 73%

    1 March, Thursday

    Time Temperature Precipitation Wind Pressure Humidity
    00:00 -14°C° 0 mm 3 mps 638 mmHg 73%
    01:00 -14°C° 0 mm 3 mps 638 mmHg 72%
    02:00 -14°C° 0 mm 3 mps 638 mmHg 72%
    03:00 -14°C° 0 mm 3 mps 637 mmHg 71%
    04:00 -14°C° 0 mm 3 mps 637 mmHg 71%
    05:00 -14°C° 0 mm 3 mps 637 mmHg 71%
    06:00 -13°C° 0 mm 3 mps 636 mmHg 71%
    07:00 -13°C° 0 mm 3 mps 636 mmHg 71%
    08:00 -10°C° 0 mm 3 mps 636 mmHg 69%
    09:00 -9°C° 0 mm 3 mps 636 mmHg 68%
    10:00 -8°C° 0 mm 3 mps 636 mmHg 66%
    11:00 -7°C° 0 mm 3 mps 636 mmHg 67%
    12:00 -6°C° 0 mm 3 mps 636 mmHg 67%
    13:00 -5°C° 0 mm 3 mps 636 mmHg 68%
    14:00 -5°C° 0 mm 3 mps 635 mmHg 70%
    15:00 -5°C° 0 mm 3 mps 635 mmHg 72%
    16:00 -4°C° 0 mm 3 mps 635 mmHg 74%
    17:00 -5°C° 0 mm 3 mps 635 mmHg 76%
    18:00 -6°C° 0 mm 3 mps 635 mmHg 79%
    19:00 -7°C° 0 mm 3 mps 635 mmHg 81%
    20:00 -6°C° 0 mm 2 mps 635 mmHg 81%
    21:00 -7°C° 0 mm 2 mps 634 mmHg 81%
    22:00 -7°C° 0 mm 2 mps 634 mmHg 82%
    23:00 -7°C° 0 mm 2 mps 634 mmHg 81%

    2 March, Friday

    Time Temperature Precipitation Wind Pressure Humidity
    00:00 -7°C° 0 mm 2 mps 634 mmHg 81%
    01:00 -7°C° 0 mm 2 mps 633 mmHg 81%
    02:00 -7°C° 0 mm 2 mps 633 mmHg 81%
    03:00 -7°C° 0 mm 2 mps 633 mmHg 82%
    04:00 -7°C° 0 mm 2 mps 632 mmHg 82%
    05:00 -7°C° 0 mm 2 mps 632 mmHg 81%
    06:00 -7°C° 0 mm 2 mps 632 mmHg 81%
    07:00 -6°C° 0 mm 2 mps 632 mmHg 81%
    08:00 -5°C° 0 mm 2 mps 632 mmHg 78%
    09:00 -3°C° 0 mm 2 mps 632 mmHg 75%
    10:00 -1°C° 0 mm 2 mps 633 mmHg 72%
    11:00 +1°C° 0 mm 2 mps 633 mmHg 74%
    12:00 +1°C° 0 mm 2 mps 633 mmHg 76%
    13:00 +3°C° 0 mm 1 mps 633 mmHg 77%
    14:00 +3°C° 0.1 mm 1 mps 633 mmHg 80%
    15:00 +2°C° 0.1 mm 1 mps 633 mmHg 84%
    16:00 +2°C° 0.1 mm 1 mps 633 mmHg 87%
    17:00 +1°C° 0.2 mm 1 mps 633 mmHg 89%
    18:00 +1°C° 0.2 mm 1 mps 634 mmHg 91%
    19:00 0°C° 0.2 mm 1 mps 634 mmHg 93%
    20:00 -1°C° 0.1 mm 1 mps 634 mmHg 93%
    21:00 -1°C° 0.1 mm 1 mps 634 mmHg 93%
    22:00 -1°C° 0.1 mm 1 mps 634 mmHg 93%
    23:00 -1°C° 0 mm 1 mps 634 mmHg 92%
    Show more